Orbital Elements
Epoch 2013 Jan. 28.0 TT = JDT 2456320.5
T 2013 Feb. 10.01613 TT MPC
q 2.6132819 (2000.0) P Q
n 0.10569993 Peri. 214.49020 -0.96816703 +0.24774571
a 4.4301618 Node 339.76392 -0.20005151 -0.85160469
e 0.4101159 Incl. 5.92458 -0.15043935 -0.46194319
P 9.32
From 40 observations 2013 Apr. 12-June 9, mean residual 0".3.
|